QPF
0.00 0.00 0.00 0.00 0.00 0.00 0.01 0.01 0.01 0.01 0.01 0.01 0.01 0.01 0.01 0.00 0.00 0.01 0.00 0.00 0.01 0.03 0.03 0.02 0.01 0.00 0.00 0.00 0.00 0.00 0.00 0.00 0.00 0.00 0.00 0.00 0.00 0.00 0.00 0.00 0.00 0.00 0.00
0.00 0.00 0.00 0.00 0.00 0.00 0.01 0.01 0.01 0.01 0.01 0.01 0.01 0.01 0.00 0.00 0.00 0.00 0.01 0.01 0.02 0.03 0.02 0.01 0.01 0.00 0.00 0.00 0.00 0.00 0.00 0.00 0.00 0.00 0.00 0.00 0.00 0.00 0.00 0.00 0.00 0.00 0.00
0.00 0.00 0.00 0.00 0.00 0.01 0.01 0.01 0.01 0.00 0.00 0.01 0.01 0.00 0.00 0.00 0.01 0.01 0.01 0.01 0.03 0.03 0.02 0.01 0.00 0.00 0.00 0.00 0.00 0.00 0.00 0.00 0.00 0.00 0.00 0.00 0.00 0.00 0.00 0.00 0.00 0.00 0.00
0.00 0.00 0.00 0.00 0.00 0.01 0.01 0.01 0.00 0.00 0.00 0.00 0.00 0.00 0.00 0.00 0.01 0.01 0.01 0.02 0.03 0.02 0.01 0.01 0.00 0.00 0.00 0.00 0.00 0.00 0.00 0.00 0.00 0.00 0.00 0.00 0.00 0.00 0.00 0.00 0.00 0.01 0.01
0.00 0.00 0.00 0.00 0.01 0.01 0.01 0.01 0.00 0.00 0.00 0.00 0.00 0.00 0.00 0.00 0.01 0.01 0.01 0.01 0.01 0.01 0.01 0.00 0.00 0.00 0.00 0.00 0.00 0.00 0.00 0.00 0.00 0.00 0.00 0.01 0.01 0.00 0.01 0.01 0.01 0.02 0.02
0.00 0.00 0.00 0.00 0.01 0.01 0.01 0.01 0.01 0.00 0.00 0.00 0.00 0.00 0.00 0.00 0.01 0.01 0.01 0.00 0.00 0.00 0.00 0.00 0.00 0.00 0.00 0.00 0.00 0.00 0.00 0.00 0.00 0.00 0.01 0.01 0.01 0.01 0.02 0.02 0.03 0.03 0.03
0.00 0.00 0.00 0.00 0.01 0.01 0.01 0.01 0.01 0.01 0.00 0.00 0.00 0.00 0.00 0.01 0.01 0.00 0.00 0.00 0.00 0.00 0.00 0.00 0.00 0.00 0.00 0.00 0.00 0.00 0.00 0.00 0.00 0.00 0.01 0.01 0.02 0.04 0.05 0.04 0.03 0.02 0.01
0.00 0.00 0.00 0.01 0.01 0.01 0.01 0.01 0.01 0.01 0.00 0.00 0.00 0.00 0.00 0.00 0.00 0.00 0.00 0.00 0.00 0.00 0.00 0.00 0.00 0.00 0.00 0.00 0.00 0.00 0.00 0.00 0.00 0.00 0.01 0.01 0.02 0.03 0.02 0.01 0.01 0.01 0.00
0.00 0.00 0.00 0.00 0.01 0.01 0.01 0.01 0.01 0.01 0.00 0.00 0.00 0.00 0.00 0.00 0.00 0.00 0.00 0.00 0.00 0.00 0.00 0.00 0.00 0.00 0.00 0.00 0.00 0.00 0.00 0.00 0.00 0.00 0.00 0.00 0.01 0.01 0.01 0.01 0.00 0.00 0.00
0.00 0.00 0.00 0.00 0.00 0.01 0.01 0.01 0.01 0.00 0.00 0.00 0.00 0.00 0.00 0.00 0.00 0.00 0.00 0.00 0.00 0.00 0.00 0.00 0.00 0.00 0.00 0.00 0.00 0.00 0.00 0.00 0.00 0.00 0.00 0.00 0.00 0.00 0.00 0.00 0.00 0.00 0.00
0.00 0.00 0.00 0.00 0.00 0.00 0.00 0.00 0.00 0.00 0.00 0.00 0.00 0.00 0.00 0.00 0.00 0.00 0.00 0.00 0.00 0.00 0.00 0.00 0.00 0.00 0.00 0.00 0.00 0.00 0.00 0.00 0.00 0.00 0.00 0.00 0.00 0.00 0.00 0.00 0.00 0.00 0.00
0.00 0.00 0.00 0.00 0.00 0.00 0.00 0.00 0.00 0.00 0.00 0.00 0.00 0.00 0.00 0.00 0.00 0.00 0.00 0.00 0.00 0.00 0.00 0.00 0.00 0.00 0.00 0.00 0.00 0.00 0.00 0.00 0.00 0.00 0.00 0.00 0.00 0.00 0.00 0.00 0.00 0.00 0.00
0.00 0.00 0.00 0.00 0.00 0.00 0.00 0.00 0.00 0.00 0.00 0.00 0.00 0.00 0.00 0.00 0.00 0.00 0.00 0.00 0.00 0.00 0.00 0.00 0.00 0.00 0.00 0.00 0.00 0.00 0.00 0.00 0.00 0.00 0.00 0.00 0.00 0.00 0.00 0.00 0.00 0.00 0.00
0.00 0.00 0.00 0.00 0.00 0.00 0.00 0.00 0.00 0.00 0.00 0.00 0.00 0.00 0.00 0.00 0.00 0.00 0.00 0.00 0.00 0.00 0.00 0.00 0.00 0.00 0.00 0.00 0.00 0.00 0.00 0.00 0.00 0.00 0.00 0.00 0.00 0.00 0.00 0.00 0.00 0.00 0.00
0.00 0.00 0.00 0.00 0.00 0.00 0.00 0.00 0.00 0.00 0.00 0.00 0.00 0.00 0.00 0.00 0.00 0.00 0.00 0.00 0.00 0.00 0.00 0.00 0.00 0.00 0.00 0.00 0.00 0.00 0.00 0.00 0.00 0.00 0.00 0.00 0.00 0.00 0.00 0.00 0.00 0.00 0.00
0.00 0.00 0.00 0.00 0.00 0.00 0.00 0.00 0.00 0.00 0.00 0.00 0.00 0.00 0.00 0.00 0.00 0.00 0.00 0.00 0.00 0.00 0.00 0.00 0.00 0.00 0.00 0.00 0.00 0.00 0.00 0.00 0.00 0.00 0.00 0.00 0.00 0.00 0.00 0.00 0.00 0.00 0.00
0.00 0.00 0.00 0.00 0.00 0.00 0.00 0.00 0.00 0.00 0.00 0.00 0.00 0.00 0.00 0.00 0.00 0.00 0.00 0.00 0.00 0.00 0.00 0.00 0.00 0.00 0.00 0.00 0.00 0.00 0.00 0.00 0.00 0.00 0.00 0.00 0.00 0.00 0.00 0.00 0.00 0.00 0.00
0.00 0.01 0.00 0.00 0.00 0.00 0.00 0.00 0.00 0.00 0.00 0.00 0.00 0.00 0.00 0.00 0.00 0.00 0.00 0.00 0.00 0.00 0.00 0.00 0.00 0.00 0.00 0.00 0.00 0.00 0.00 0.00 0.00 0.00 0.00 0.00 0.00 0.00 0.00 0.00 0.00 0.00 0.00
0.00 0.00 0.00 0.00 0.00 0.00 0.00 0.00 0.00 0.00 0.00 0.00 0.00 0.00 0.00 0.00 0.00 0.00 0.00 0.00 0.00 0.00 0.00 0.00 0.00 0.00 0.00 0.00 0.00 0.00 0.00 0.00 0.00 0.00 0.00 0.00 0.00 0.00 0.00 0.00 0.00 0.00 0.00
0.00 0.00 0.00 0.00 0.00 0.00 0.00 0.01 0.01 0.00 0.00 0.00 0.00 0.00 0.00 0.00 0.00 0.00 0.00 0.00 0.00 0.00 0.00 0.00 0.00 0.00 0.00 0.00 0.00 0.00 0.00 0.00 0.00 0.00 0.00 0.00 0.00 0.00 0.00 0.00 0.00 0.00 0.00
0.00 0.00 0.00 0.00 0.00 0.00 0.00 0.01 0.01 0.01 0.00 0.00 0.00 0.00 0.00 0.00 0.01 0.00 0.00 0.00 0.00 0.00 0.00 0.01 0.00 0.00 0.00 0.00 0.00 0.00 0.00 0.00 0.00 0.00 0.00 0.00 0.00 0.00 0.00 0.00 0.00 0.00 0.00
0.00 0.00 0.00 0.00 0.00 0.00 0.00 0.00 0.00 0.00 0.00 0.00 0.00 0.00 0.00 0.01 0.01 0.01 0.01 0.01 0.00 0.00 0.01 0.01 0.01 0.01 0.01 0.01 0.00 0.00 0.00 0.00 0.00 0.00 0.00 0.00 0.00 0.00 0.00 0.00 0.00 0.00 0.00
0.00 0.00 0.00 0.00 0.00 0.00 0.00 0.01 0.00 0.00 0.00 0.00 0.00 0.00 0.00 0.00 0.01 0.01 0.01 0.01 0.01 0.02 0.02 0.02 0.02 0.02 0.01 0.01 0.01 0.01 0.01 0.00 0.00 0.00 0.00 0.00 0.00 0.00 0.00 0.00 0.00 0.00 0.00
0.00 0.00 0.00 0.00 0.00 0.00 0.00 0.00 0.00 0.00 0.00 0.00 0.00 0.00 0.00 0.00 0.00 0.01 0.01 0.02 0.02 0.02 0.03 0.04 0.05 0.05 0.04 0.03 0.03 0.03 0.02 0.01 0.01 0.00 0.00 0.01 0.01 0.00 0.00 0.00 0.00 0.00 0.00
0.00 0.00 0.00 0.00 0.00 0.00 0.00 0.00 0.00 0.00 0.00 0.00 0.00 0.00 0.00 0.00 0.01 0.01 0.01 0.02 0.02 0.02 0.04 0.05 0.06 0.07 0.08 0.07 0.06 0.07 0.07 0.05 0.03 0.02 0.01 0.01 0.01 0.01 0.01 0.01 0.01 0.01 0.01
0.00 0.00 0.00 0.00 0.00 0.00 0.00 0.00 0.00 0.00 0.00 0.00 0.00 0.00 0.00 0.00 0.01 0.01 0.01 0.02 0.02 0.03 0.04 0.06 0.08 0.10 0.11 0.12 0.11 0.09 0.10 0.10 0.09 0.09 0.08 0.06 0.05 0.06 0.06 0.06 0.05 0.05 0.04
MSLP
1012.57 1012.65 1012.82 1013.09 1013.45 1013.87 1014.32 1014.74 1015.11 1015.40 1015.61 1015.78 1015.92 1016.08 1016.28 1016.51 1016.76 1017.01 1017.23 1017.40 1017.51 1017.58 1017.63 1017.69 1017.77 1017.89 1018.05 1018.22 1018.40 1018.57 1018.72 1018.85 1018.96 1019.07 1019.18 1019.30 1019.42 1019.52 1019.59 1019.63 1019.64 1019.62 1019.60
1012.38 1012.54 1012.81 1013.18 1013.62 1014.12 1014.60 1015.02 1015.37 1015.62 1015.81 1015.95 1016.09 1016.26 1016.47 1016.72 1016.99 1017.25 1017.48 1017.67 1017.80 1017.91 1018.01 1018.11 1018.24 1018.39 1018.56 1018.72 1018.87 1018.98 1019.06 1019.13 1019.20 1019.27 1019.38 1019.50 1019.63 1019.76 1019.85 1019.90 1019.90 1019.87 1019.83
1012.14 1012.39 1012.76 1013.24 1013.79 1014.36 1014.89 1015.34 1015.68 1015.93 1016.10 1016.23 1016.37 1016.54 1016.76 1017.00 1017.27 1017.52 1017.73 1017.91 1018.05 1018.17 1018.30 1018.45 1018.62 1018.81 1018.99 1019.14 1019.26 1019.32 1019.35 1019.36 1019.38 1019.44 1019.53 1019.66 1019.82 1019.96 1020.07 1020.14 1020.15 1020.12 1020.07
1011.90 1012.23 1012.70 1013.29 1013.94 1014.58 1015.17 1015.66 1016.02 1016.28 1016.45 1016.59 1016.74 1016.91 1017.12 1017.35 1017.59 1017.80 1017.98 1018.13 1018.26 1018.38 1018.53 1018.71 1018.92 1019.14 1019.34 1019.49 1019.58 1019.61 1019.60 1019.57 1019.56 1019.59 1019.68 1019.82 1019.99 1020.15 1020.29 1020.37 1020.40 1020.38 1020.35
1011.70 1012.10 1012.66 1013.34 1014.07 1014.79 1015.43 1015.95 1016.34 1016.61 1016.80 1016.96 1017.12 1017.30 1017.50 1017.72 1017.92 1018.10 1018.24 1018.35 1018.45 1018.57 1018.73 1018.93 1019.16 1019.41 1019.62 1019.77 1019.86 1019.87 1019.83 1019.78 1019.75 1019.77 1019.86 1020.01 1020.19 1020.37 1020.52 1020.62 1020.67 1020.68 1020.66
1011.59 1012.06 1012.68 1013.43 1014.22 1014.97 1015.64 1016.18 1016.59 1016.88 1017.09 1017.27 1017.45 1017.65 1017.86 1018.06 1018.25 1018.39 1018.50 1018.58 1018.66 1018.77 1018.93 1019.15 1019.39 1019.65 1019.87 1020.02 1020.10 1020.10 1020.06 1020.00 1019.97 1019.99 1020.09 1020.24 1020.43 1020.63 1020.79 1020.91 1020.98 1021.01 1021.02
1011.64 1012.14 1012.80 1013.57 1014.37 1015.13 1015.80 1016.34 1016.74 1017.04 1017.27 1017.47 1017.68 1017.90 1018.13 1018.35 1018.53 1018.66 1018.75 1018.82 1018.90 1019.01 1019.17 1019.39 1019.64 1019.90 1020.11 1020.26 1020.33 1020.33 1020.28 1020.23 1020.21 1020.25 1020.36 1020.53 1020.73 1020.93 1021.10 1021.23 1021.32 1021.36 1021.39
1011.85 1012.35 1013.01 1013.77 1014.54 1015.28 1015.90 1016.41 1016.79 1017.08 1017.32 1017.55 1017.78 1018.04 1018.29 1018.53 1018.73 1018.88 1018.99 1019.07 1019.16 1019.28 1019.45 1019.67 1019.91 1020.16 1020.36 1020.49 1020.55 1020.54 1020.50 1020.46 1020.46 1020.52 1020.66 1020.84 1021.06 1021.27 1021.44 1021.58 1021.66 1021.72 1021.77
1012.21 1012.70 1013.32 1014.03 1014.74 1015.41 1015.97 1016.42 1016.76 1017.03 1017.27 1017.50 1017.77 1018.05 1018.34 1018.62 1018.86 1019.04 1019.18 1019.30 1019.41 1019.56 1019.74 1019.96 1020.20 1020.42 1020.59 1020.70 1020.74 1020.72 1020.68 1020.66 1020.68 1020.78 1020.94 1021.15 1021.38 1021.60 1021.78 1021.91 1022.00 1022.06 1022.12
1012.67 1013.12 1013.69 1014.32 1014.95 1015.52 1016.00 1016.38 1016.67 1016.91 1017.14 1017.39 1017.67 1017.98 1018.31 1018.62 1018.89 1019.12 1019.30 1019.46 1019.62 1019.80 1020.00 1020.22 1020.44 1020.63 1020.77 1020.85 1020.86 1020.83 1020.79 1020.79 1020.84 1020.97 1021.17 1021.41 1021.67 1021.90 1022.09 1022.23 1022.31 1022.37 1022.42
1013.15 1013.56 1014.06 1014.60 1015.13 1015.60 1016.00 1016.31 1016.55 1016.77 1016.99 1017.24 1017.53 1017.86 1018.20 1018.54 1018.84 1019.11 1019.33 1019.53 1019.73 1019.94 1020.16 1020.38 1020.58 1020.75 1020.86 1020.90 1020.89 1020.85 1020.81 1020.82 1020.90 1021.07 1021.31 1021.59 1021.88 1022.14 1022.35 1022.49 1022.58 1022.64 1022.69
1013.58 1013.94 1014.36 1014.81 1015.25 1015.63 1015.95 1016.21 1016.42 1016.62 1016.83 1017.09 1017.38 1017.71 1018.06 1018.40 1018.71 1018.99 1019.24 1019.47 1019.70 1019.93 1020.16 1020.39 1020.59 1020.74 1020.82 1020.84 1020.81 1020.76 1020.73 1020.76 1020.87 1021.07 1021.35 1021.67 1022.00 1022.29 1022.53 1022.70 1022.80 1022.86 1022.91
1013.88 1014.19 1014.54 1014.91 1015.26 1015.57 1015.84 1016.06 1016.26 1016.46 1016.68 1016.94 1017.23 1017.56 1017.88 1018.20 1018.50 1018.77 1019.02 1019.26 1019.50 1019.75 1020.00 1020.24 1020.43 1020.58 1020.65 1020.66 1020.63 1020.58 1020.57 1020.62 1020.76 1020.99 1021.30 1021.66 1022.03 1022.36 1022.63 1022.83 1022.96 1023.05 1023.11
1014.00 1014.27 1014.56 1014.86 1015.14 1015.40 1015.63 1015.85 1016.05 1016.27 1016.51 1016.78 1017.07 1017.38 1017.67 1017.96 1018.22 1018.46 1018.69 1018.92 1019.16 1019.42 1019.68 1019.93 1020.14 1020.29 1020.38 1020.40 1020.39 1020.36 1020.37 1020.44 1020.60 1020.86 1021.19 1021.57 1021.97 1022.33 1022.64 1022.89 1023.06 1023.19 1023.29
1013.94 1014.17 1014.41 1014.65 1014.88 1015.11 1015.33 1015.55 1015.79 1016.03 1016.30 1016.59 1016.88 1017.16 1017.42 1017.66 1017.87 1018.07 1018.26 1018.48 1018.71 1018.97 1019.24 1019.51 1019.74 1019.93 1020.05 1020.12 1020.14 1020.15 1020.19 1020.28 1020.45 1020.71 1021.05 1021.43 1021.84 1022.22 1022.57 1022.86 1023.09 1023.26 1023.41
1013.72 1013.91 1014.11 1014.30 1014.50 1014.71 1014.94 1015.18 1015.44 1015.73 1016.03 1016.33 1016.62 1016.88 1017.11 1017.30 1017.47 1017.62 1017.79 1017.98 1018.21 1018.47 1018.76 1019.05 1019.32 1019.56 1019.73 1019.85 1019.93 1019.99 1020.06 1020.17 1020.34 1020.59 1020.91 1021.27 1021.66 1022.04 1022.40 1022.72 1023.00 1023.24 1023.45
1013.41 1013.57 1013.73 1013.89 1014.07 1014.26 1014.49 1014.76 1015.05 1015.36 1015.69 1016.00 1016.28 1016.53 1016.73 1016.89 1017.03 1017.16 1017.30 1017.49 1017.71 1017.99 1018.30 1018.62 1018.94 1019.22 1019.46 1019.65 1019.78 1019.90 1020.00 1020.13 1020.30 1020.51 1020.78 1021.09 1021.43 1021.79 1022.14 1022.48 1022.80 1023.10 1023.37
1013.09 1013.22 1013.35 1013.48 1013.64 1013.83 1014.06 1014.33 1014.64 1014.97 1015.30 1015.61 1015.88 1016.11 1016.30 1016.44 1016.57 1016.69 1016.84 1017.03 1017.27 1017.56 1017.90 1018.25 1018.61 1018.95 1019.25 1019.50 1019.70 1019.86 1020.01 1020.14 1020.29 1020.46 1020.67 1020.91 1021.18 1021.48 1021.80 1022.14 1022.48 1022.82 1023.15
1012.84 1012.95 1013.05 1013.16 1013.29 1013.47 1013.69 1013.96 1014.26 1014.58 1014.89 1015.18 1015.44 1015.65 1015.82 1015.96 1016.09 1016.23 1016.40 1016.62 1016.88 1017.20 1017.56 1017.95 1018.34 1018.72 1019.06 1019.37 1019.62 1019.83 1020.00 1020.15 1020.27 1020.40 1020.54 1020.70 1020.89 1021.12 1021.39 1021.70 1022.05 1022.42 1022.80
1012.73 1012.81 1012.88 1012.97 1013.09 1013.24 1013.45 1013.69 1013.96 1014.24 1014.51 1014.76 1014.98 1015.16 1015.32 1015.46 1015.61 1015.78 1015.98 1016.23 1016.53 1016.88 1017.26 1017.66 1018.07 1018.47 1018.84 1019.18 1019.47 1019.72 1019.92 1020.07 1020.19 1020.28 1020.36 1020.46 1020.57 1020.73 1020.95 1021.23 1021.56 1021.94 1022.35
1012.78 1012.83 1012.88 1012.94 1013.04 1013.17 1013.34 1013.55 1013.77 1013.98 1014.19 1014.37 1014.53 1014.67 1014.81 1014.95 1015.12 1015.32 1015.56 1015.85 1016.18 1016.54 1016.93 1017.33 1017.73 1018.13 1018.50 1018.86 1019.17 1019.45 1019.67 1019.84 1019.97 1020.05 1020.10 1020.15 1020.23 1020.34 1020.51 1020.76 1021.08 1021.46 1021.89
1012.98 1013.00 1013.03 1013.07 1013.14 1013.25 1013.38 1013.53 1013.68 1013.82 1013.94 1014.04 1014.13 1014.21 1014.31 1014.44 1014.61 1014.84 1015.11 1015.42 1015.76 1016.13 1016.50 1016.88 1017.26 1017.62 1017.98 1018.33 1018.65 1018.94 1019.20 1019.40 1019.56 1019.67 1019.74 1019.79 1019.86 1019.96 1020.12 1020.35 1020.67 1021.05 1021.48
1013.30 1013.28 1013.28 1013.30 1013.35 1013.42 1013.52 1013.61 1013.69 1013.75 1013.78 1013.78 1013.78 1013.79 1013.84 1013.94 1014.10 1014.33 1014.61 1014.93 1015.27 1015.62 1015.96 1016.29 1016.61 1016.93 1017.25 1017.57 1017.89 1018.20 1018.49 1018.75 1018.96 1019.13 1019.27 1019.38 1019.49 1019.63 1019.82 1020.07 1020.39 1020.78 1021.22
1013.66 1013.62 1013.59 1013.59 1013.61 1013.65 1013.70 1013.75 1013.76 1013.74 1013.68 1013.59 1013.51 1013.44 1013.43 1013.48 1013.62 1013.82 1014.08 1014.38 1014.69 1015.00 1015.29 1015.56 1015.82 1016.07 1016.34 1016.62 1016.93 1017.26 1017.59 1017.91 1018.22 1018.48 1018.72 1018.94 1019.15 1019.37 1019.63 1019.93 1020.29 1020.69 1021.13
1014.04 1013.97 1013.91 1013.88 1013.87 1013.89 1013.90 1013.90 1013.86 1013.77 1013.64 1013.48 1013.32 1013.18 1013.11 1013.11 1013.19 1013.35 1013.57 1013.82 1014.09 1014.34 1014.57 1014.77 1014.95 1015.14 1015.35 1015.60 1015.90 1016.23 1016.61 1017.00 1017.40 1017.79 1018.15 1018.50 1018.84 1019.18 1019.54 1019.93 1020.34 1020.77 1021.22
1014.39 1014.29 1014.21 1014.15 1014.12 1014.10 1014.09 1014.05 1013.97 1013.84 1013.67 1013.46 1013.24 1013.05 1012.92 1012.86 1012.89 1012.99 1013.15 1013.35 1013.55 1013.73 1013.88 1014.01 1014.13 1014.26 1014.42 1014.63 1014.92 1015.26 1015.68 1016.14 1016.63 1017.13 1017.63 1018.12 1018.60 1019.07 1019.55 1020.02 1020.50 1020.98 1021.43
Thickness
5774 5773 5769 5766 5764 5762 5760 5758 5756 5754 5752 5750 5749 5747 5746 5744 5744 5743 5742 5741 5740 5739 5737 5736 5734 5732 5731 5729 5728 5726 5724 5722 5721 5719 5718 5717 5715 5714 5713 5712 5711 5709 5708
5777 5771 5767 5764 5761 5759 5757 5755 5752 5750 5748 5747 5745 5743 5742 5741 5740 5740 5738 5737 5736 5735 5733 5731 5729 5727 5726 5724 5722 5720 5719 5717 5716 5715 5713 5712 5710 5709 5708 5707 5706 5705 5703
5775 5769 5764 5762 5759 5756 5754 5751 5748 5746 5744 5742 5741 5740 5739 5738 5737 5736 5735 5733 5732 5730 5728 5726 5724 5722 5720 5719 5717 5715 5714 5713 5712 5710 5709 5708 5706 5704 5703 5702 5701 5700 5699
5772 5766 5762 5759 5756 5753 5750 5747 5745 5742 5740 5738 5737 5736 5735 5734 5733 5732 5731 5729 5727 5725 5723 5721 5719 5717 5715 5714 5712 5711 5710 5709 5708 5707 5706 5704 5702 5700 5699 5698 5696 5695 5694
5769 5764 5759 5755 5752 5749 5746 5744 5741 5739 5736 5735 5733 5732 5731 5730 5729 5728 5726 5724 5722 5720 5718 5716 5714 5712 5710 5709 5707 5706 5705 5704 5703 5703 5702 5699 5697 5695 5694 5693 5691 5690 5689
5766 5760 5754 5752 5748 5746 5743 5740 5737 5735 5733 5731 5730 5728 5727 5726 5725 5723 5721 5719 5717 5715 5713 5711 5709 5707 5705 5703 5702 5701 5700 5699 5699 5698 5696 5694 5692 5690 5689 5687 5686 5684 5683
5762 5755 5749 5747 5744 5742 5739 5736 5734 5732 5729 5728 5726 5724 5723 5722 5720 5718 5716 5714 5712 5710 5708 5706 5704 5702 5700 5698 5697 5696 5696 5695 5695 5693 5690 5688 5686 5684 5683 5681 5680 5678 5677
5758 5750 5745 5742 5740 5737 5735 5733 5730 5728 5726 5724 5722 5721 5719 5717 5715 5713 5712 5709 5707 5705 5703 5701 5699 5697 5695 5693 5692 5691 5691 5690 5689 5688 5684 5682 5680 5678 5676 5675 5673 5672 5670
5753 5746 5740 5737 5735 5733 5731 5729 5727 5725 5723 5721 5719 5717 5715 5713 5711 5709 5707 5705 5703 5701 5699 5697 5694 5692 5690 5689 5687 5687 5686 5686 5684 5683 5679 5676 5675 5673 5670 5668 5667 5665 5664
5747 5742 5737 5734 5732 5729 5727 5725 5723 5721 5719 5717 5715 5713 5711 5709 5707 5705 5703 5701 5699 5697 5695 5693 5691 5689 5687 5685 5683 5683 5682 5681 5680 5678 5674 5671 5669 5667 5664 5662 5661 5659 5657
5739 5738 5735 5732 5730 5727 5724 5722 5719 5717 5715 5713 5711 5709 5707 5706 5704 5702 5700 5697 5695 5693 5691 5689 5687 5685 5683 5681 5680 5679 5678 5678 5676 5674 5670 5667 5664 5661 5659 5657 5655 5653 5651
5730 5732 5733 5731 5728 5726 5724 5719 5716 5714 5712 5710 5708 5706 5705 5704 5703 5700 5697 5694 5692 5690 5688 5686 5684 5682 5680 5678 5677 5676 5675 5675 5673 5670 5666 5663 5660 5657 5654 5651 5649 5647 5645
5724 5727 5728 5728 5726 5724 5721 5717 5715 5713 5710 5708 5707 5704 5703 5703 5701 5698 5694 5691 5689 5687 5685 5682 5680 5679 5677 5676 5674 5673 5672 5672 5670 5667 5662 5659 5655 5652 5649 5646 5643 5641 5639
5718 5720 5722 5723 5722 5720 5718 5716 5715 5712 5709 5707 5706 5704 5702 5701 5698 5695 5692 5689 5687 5685 5682 5680 5678 5677 5676 5675 5673 5671 5669 5668 5667 5663 5659 5655 5652 5648 5645 5642 5639 5636 5634
5715 5716 5717 5717 5717 5716 5715 5713 5712 5711 5709 5706 5704 5702 5700 5698 5696 5693 5691 5688 5686 5683 5681 5679 5676 5675 5673 5672 5670 5668 5667 5664 5662 5660 5655 5652 5648 5644 5641 5638 5634 5631 5629
5713 5713 5713 5713 5713 5712 5710 5709 5708 5708 5707 5705 5703 5700 5698 5696 5693 5691 5688 5686 5684 5682 5680 5677 5675 5673 5671 5669 5666 5665 5663 5660 5658 5656 5652 5648 5644 5640 5637 5634 5630 5627 5624
5712 5713 5712 5711 5710 5708 5706 5705 5705 5704 5703 5702 5701 5698 5696 5693 5691 5688 5686 5683 5681 5679 5676 5674 5671 5670 5667 5665 5662 5660 5658 5656 5654 5652 5649 5645 5640 5636 5632 5629 5626 5623 5619
5710 5710 5710 5710 5708 5706 5704 5703 5701 5700 5700 5699 5698 5696 5693 5690 5687 5685 5682 5680 5678 5675 5673 5670 5667 5664 5661 5659 5656 5654 5652 5650 5649 5646 5644 5641 5637 5632 5628 5624 5621 5618 5615
5705 5706 5706 5706 5705 5703 5702 5701 5699 5697 5696 5695 5694 5693 5690 5688 5685 5682 5679 5676 5674 5671 5668 5665 5662 5658 5654 5652 5649 5647 5646 5644 5642 5640 5638 5636 5633 5629 5624 5620 5616 5613 5609
5698 5700 5701 5701 5701 5700 5698 5697 5695 5693 5692 5690 5689 5688 5686 5684 5681 5678 5675 5673 5669 5666 5663 5660 5656 5653 5649 5645 5642 5640 5638 5636 5635 5633 5631 5630 5628 5624 5620 5615 5611 5607 5603
5689 5690 5691 5693 5694 5694 5692 5690 5688 5687 5686 5685 5684 5683 5681 5679 5677 5674 5671 5668 5665 5661 5658 5654 5650 5646 5642 5638 5631 5627 5627 5627 5627 5626 5624 5622 5620 5618 5614 5610 5606 5601 5597
5677 5679 5681 5683 5685 5686 5686 5685 5685 5684 5683 5683 5681 5678 5675 5673 5670 5668 5665 5662 5659 5656 5652 5649 5644 5639 5635 5631 5623 5615 5611 5612 5616 5619 5616 5614 5613 5611 5608 5604 5600 5596 5591
5664 5666 5670 5672 5675 5676 5677 5677 5677 5677 5677 5675 5674 5673 5671 5668 5665 5662 5659 5657 5653 5650 5646 5643 5638 5632 5627 5623 5620 5613 5607 5607 5606 5607 5608 5607 5604 5602 5600 5596 5593 5589 5584
5653 5655 5659 5662 5664 5666 5668 5667 5665 5664 5664 5666 5667 5667 5666 5664 5661 5657 5654 5650 5647 5643 5640 5637 5633 5627 5621 5615 5611 5611 5609 5607 5599 5594 5594 5595 5593 5591 5589 5586 5583 5579 5575
5643 5645 5648 5651 5654 5656 5657 5657 5656 5655 5656 5657 5658 5658 5657 5657 5655 5652 5648 5644 5640 5636 5633 5629 5625 5620 5615 5610 5604 5600 5596 5593 5592 5585 5580 5580 5579 5578 5576 5574 5571 5567 5564
5633 5635 5638 5641 5643 5645 5646 5646 5646 5646 5646 5646 5645 5646 5646 5646 5645 5644 5641 5637 5633 5629 5625 5621 5617 5612 5608 5603 5598 5592 5587 5583 5582 5578 5573 5567 5564 5562 5560 5559 5557 5554 5550